TimeEDT,TemperatureF,Dew PointF,Humidity,Sea Level PressureIn,VisibilityMPH,Wind Direction,Wind SpeedMPH,Gust SpeedMPH,PrecipitationIn,Events,Conditions,WindDirDegrees,DateUTC
12:15 AM,69.6,69.6,100,30.11,4.0,North,-9999.0,-,N/A,,Clear,0,2013-06-26 04:15:00
12:35 AM,68.9,68.9,100,30.10,3.0,North,-9999.0,-,N/A,,Clear,0,2013-06-26 04:35:00
12:55 AM,68.9,68.9,100,30.11,5.0,North,-9999.0,-,N/A,,Clear,0,2013-06-26 04:55:00
1:15 AM,68.9,68.9,100,30.11,4.0,North,-9999.0,-,N/A,,Clear,0,2013-06-26 05:15:00
1:35 AM,68.2,68.2,100,30.11,3.0,North,-9999.0,-,N/A,,Mostly Cloudy,0,2013-06-26 05:35:00
1:55 AM,68.0,68.0,100,30.10,3.0,North,-9999.0,-,N/A,,Mostly Cloudy,0,2013-06-26 05:55:00
2:15 AM,68.0,68.0,100,30.10,3.0,North,-9999.0,-,N/A,,Scattered Clouds,0,2013-06-26 06:15:00
2:35 AM,67.6,67.6,100,30.09,5.0,North,-9999.0,-,N/A,,Scattered Clouds,0,2013-06-26 06:35:00
2:55 AM,68.0,68.0,100,30.09,4.0,North,-9999.0,-,N/A,,Overcast,0,2013-06-26 06:55:00
3:15 AM,68.0,68.0,100,30.09,1.0,North,-9999.0,-,N/A,,Overcast,0,2013-06-26 07:15:00
3:35 AM,68.0,68.0,100,30.09,0.8,North,-9999.0,-,N/A,,Overcast,0,2013-06-26 07:35:00
3:55 AM,67.3,67.3,100,30.09,1.8,North,-9999.0,-,N/A,,Overcast,0,2013-06-26 07:55:00
4:15 AM,67.5,67.5,100,30.09,1.0,North,-9999.0,-,N/A,,Overcast,0,2013-06-26 08:15:00
4:35 AM,67.3,67.3,100,30.09,0.8,North,-9999.0,-,N/A,,Overcast,0,2013-06-26 08:35:00
4:55 AM,67.3,67.3,100,30.09,1.2,North,-9999.0,-,N/A,,Overcast,0,2013-06-26 08:55:00
5:15 AM,67.3,67.3,100,30.10,0.8,North,-9999.0,-,N/A,,Overcast,0,2013-06-26 09:15:00
5:35 AM,67.3,67.3,100,30.10,0.8,North,-9999.0,-,N/A,,Overcast,0,2013-06-26 09:35:00
5:55 AM,67.5,67.5,100,30.10,1.0,North,-9999.0,-,N/A,,Overcast,0,2013-06-26 09:55:00
6:15 AM,68.2,68.2,100,30.11,0.8,North,-9999.0,-,N/A,,Overcast,0,2013-06-26 10:15:00
6:35 AM,68.2,68.2,100,30.11,0.8,North,-9999.0,-,N/A,,Overcast,0,2013-06-26 10:35:00
6:55 AM,68.2,68.2,100,30.11,1.5,North,-9999.0,-,N/A,,Overcast,0,2013-06-26 10:55:00
7:15 AM,68.4,68.4,100,30.11,3.0,North,-9999.0,-,N/A,,Overcast,0,2013-06-26 11:15:00
7:35 AM,68.9,68.9,100,30.11,7.0,North,-9999.0,-,N/A,,Overcast,0,2013-06-26 11:35:00
7:55 AM,69.8,69.8,100,30.10,10.0,North,-9999.0,-,N/A,,Overcast,0,2013-06-26 11:55:00
8:15 AM,70.5,70.5,100,30.09,10.0,North,-9999.0,-,N/A,,Mostly Cloudy,0,2013-06-26 12:15:00
8:35 AM,72.3,71.2,96,30.10,10.0,North,-9999.0,-,N/A,,Mostly Cloudy,0,2013-06-26 12:35:00
8:55 AM,74.3,71.2,90,30.10,10.0,North,-9999.0,-,N/A,,Mostly Cloudy,0,2013-06-26 12:55:00
9:15 AM,75.6,71.8,88,30.09,10.0,North,-9999.0,-,N/A,,Mostly Cloudy,0,2013-06-26 13:15:00
9:35 AM,76.3,71.6,85,30.09,10.0,North,-9999.0,-,N/A,,Mostly Cloudy,0,2013-06-26 13:35:00
9:55 AM,78.1,72.3,82,30.09,10.0,North,-9999.0,-,N/A,,Overcast,0,2013-06-26 13:55:00
10:15 AM,79.5,72.9,80,30.08,10.0,North,-9999.0,-,N/A,,Overcast,0,2013-06-26 14:15:00
10:55 AM,79.2,72.7,80,30.08,10.0,North,-9999.0,-,N/A,,Overcast,0,2013-06-26 14:55:00
11:15 AM,79.5,72.9,80,30.09,10.0,North,-9999.0,-,N/A,,Overcast,0,2013-06-26 15:15:00
11:35 AM,80.2,73.6,80,30.08,10.0,North,-9999.0,-,N/A,,Mostly Cloudy,0,2013-06-26 15:35:00
11:55 AM,81.0,73.4,78,30.09,10.0,North,-9999.0,-,N/A,,Mostly Cloudy,0,2013-06-26 15:55:00
12:15 PM,81.5,73.6,77,30.09,10.0,North,-9999.0,-,N/A,,Overcast,0,2013-06-26 16:15:00
12:35 PM,82.6,73.6,74,30.09,10.0,North,-9999.0,-,N/A,,Mostly Cloudy,0,2013-06-26 16:35:00
12:55 PM,82.0,73.2,75,30.08,10.0,North,-9999.0,-,N/A,,Mostly Cloudy,0,2013-06-26 16:55:00
1:15 PM,82.2,73.0,74,30.09,10.0,North,-9999.0,-,N/A,,Mostly Cloudy,0,2013-06-26 17:15:00
1:35 PM,81.7,72.7,74,30.09,10.0,North,-9999.0,-,N/A,,Overcast,0,2013-06-26 17:35:00
1:55 PM,81.5,72.0,73,30.08,10.0,North,-9999.0,-,N/A,,Mostly Cloudy,0,2013-06-26 17:55:00
2:15 PM,82.4,72.0,71,30.07,10.0,North,-9999.0,-,N/A,,Scattered Clouds,0,2013-06-26 18:15:00
2:35 PM,83.3,71.8,68,30.06,10.0,North,-9999.0,-,N/A,,Scattered Clouds,0,2013-06-26 18:35:00
3:15 PM,85.5,72.5,65,30.05,10.0,North,-9999.0,-,N/A,,Scattered Clouds,0,2013-06-26 19:15:00
3:35 PM,85.5,72.1,64,30.04,10.0,North,-9999.0,-,N/A,,Scattered Clouds,0,2013-06-26 19:35:00
3:55 PM,85.6,72.1,64,30.02,10.0,North,-9999.0,-,N/A,,Scattered Clouds,0,2013-06-26 19:55:00
4:15 PM,83.5,71.6,67,30.02,10.0,North,-9999.0,-,N/A,,Mostly Cloudy,0,2013-06-26 20:15:00
4:35 PM,80.4,72.1,76,30.02,10.0,North,-9999.0,-,N/A,,Overcast,0,2013-06-26 20:35:00
5:15 PM,83.8,72.9,69,30.01,10.0,North,-9999.0,-,N/A,,Clear,0,2013-06-26 21:15:00
5:35 PM,84.7,70.3,62,30.01,10.0,North,-9999.0,-,N/A,,Clear,0,2013-06-26 21:35:00
5:55 PM,84.2,72.7,68,30.00,10.0,North,-9999.0,-,N/A,,Clear,0,2013-06-26 21:55:00
6:15 PM,85.1,71.8,64,29.99,10.0,North,-9999.0,-,N/A,,Clear,0,2013-06-26 22:15:00
6:35 PM,82.9,73.2,72,30.00,10.0,North,-9999.0,-,N/A,,Clear,0,2013-06-26 22:35:00
6:55 PM,80.2,74.5,83,30.01,10.0,North,-9999.0,-,N/A,,Scattered Clouds,0,2013-06-26 22:55:00
7:15 PM,79.9,74.5,83,30.00,10.0,North,-9999.0,-,N/A,,Scattered Clouds,0,2013-06-26 23:15:00
7:35 PM,79.0,75.0,88,30.00,10.0,North,-9999.0,-,N/A,,Scattered Clouds,0,2013-06-26 23:35:00
7:55 PM,77.9,74.3,89,30.00,10.0,North,-9999.0,-,N/A,,Scattered Clouds,0,2013-06-26 23:55:00
8:15 PM,77.0,73.8,90,30.00,10.0,North,-9999.0,-,N/A,,Mostly Cloudy,0,2013-06-27 00:15:00
8:35 PM,75.6,73.4,93,29.98,10.0,North,-9999.0,-,N/A,,Scattered Clouds,0,2013-06-27 00:35:00
8:55 PM,74.3,72.7,95,29.98,7.0,North,-9999.0,-,N/A,,Clear,0,2013-06-27 00:55:00
9:15 PM,73.4,72.5,97,29.98,10.0,North,-9999.0,-,N/A,,Clear,0,2013-06-27 01:15:00
9:35 PM,72.7,72.0,98,29.98,7.0,North,-9999.0,-,N/A,,Clear,0,2013-06-27 01:35:00
9:55 PM,72.1,71.6,98,29.99,7.0,North,-9999.0,-,N/A,,Clear,0,2013-06-27 01:55:00
10:15 PM,71.8,71.4,99,29.98,7.0,North,-9999.0,-,N/A,,Clear,0,2013-06-27 02:15:00
10:35 PM,71.8,71.6,99,29.99,7.0,North,-9999.0,-,N/A,,Mostly Cloudy,0,2013-06-27 02:35:00
10:55 PM,72.1,71.8,99,30.00,7.0,North,-9999.0,-,N/A,,Overcast,0,2013-06-27 02:55:00
11:15 PM,72.0,71.6,99,29.99,7.0,North,-9999.0,-,N/A,,Mostly Cloudy,0,2013-06-27 03:15:00
11:35 PM,72.0,71.6,99,29.99,7.0,North,-9999.0,-,N/A,,Mostly Cloudy,0,2013-06-27 03:35:00
11:55 PM,72.0,71.8,99,29.99,7.0,North,-9999.0,-,N/A,,Mostly Cloudy,0,2013-06-27 03:55:00